Buenos Aires, Argentina

10:26 AM America en Junio 24, 2017 (GMT +0000)
Jorge Newbery Aeroparque

Tiempo Historia de SABE - Abril, 2017

Change the Weather History Date:

Viernes, Abril 21, 2017

  Actual Average Record
Temperature  
Temperatura media 70 ° F -  
Temperatura máxima 76 ° F 67 ° F 76 ° F (2017)
Temperatura mínima 62 ° F 54 ° F 44 ° F (2002)
Cooling Degree Days 4    
Growing Degree Days 20 (Base 50)    
Moisture  
Punto de rocío 47 ° F    
Average Humidity 46    
Maximum Humidity 68    
Minimum Humidity 14    
Precipitación  
Precipitación 0.00 pul 0.10 pul - ()
Presión al nivel del mar  
Presión al nivel del mar 29.87 pul    
Viento  
Velocidad del viento 5 mph ()    
Velocidad máxima del viento 15 mph    
Max Gust Speed 26 mph    
Visibilidad 6.0 Millas    
Eventos      
Averages and records for this station are not official NWS values.
T = Trace of Precipitation, MM = Missing Value Source: Averaged Metar Reports

Daily Weather History Graph

Daily Weather History Graph

Search for Another Location

Airport or City:

Trip Planner

Search our weather history database for the weather conditions in past years. The results will help you decide how hot, cold, wet, or windy it might be!

Date:

Astronomía

Apr. 21, 2017 Salida Puesta
Hora real 7:21 AM -03 6:22 PM -03
Crepúsculo civil 6:56 AM -03 6:48 PM -03
Crepúsculo náutico 6:26 AM -03 7:17 PM -03
Crepúsculo astronómico 5:57 AM -03 7:46 PM -03
Luna 1:55 AM -03 (4/21) 3:31 PM -03 (4/21)
Horas de luz 11h 51m
Horas de luz
11h 00m
Creciente menguante, 28% of the Moon is Illuminated
Abr 21
Creciente menguante
Abr 26
Nueva
May 2
Cuarto creciente
May 10
Luna llena
May 18
Cuarto menguante

Hourly Weather History & Observations

Hora (-03) Temp. Punto de rocío Humedad Presión Visibilidad Wind Dir Velocidad del viento Velocidad de ráfagas Precip Eventos Condiciones
12:00 AM 69 ° F 54 ° F 50% 29.79 pul 6 mi 2.3 mph - -   Muy nublado
12:00 AM 68.0 ° F 53.6 ° F 60% 29.77 pul - Variable 2.3 mph - N/A   Despejado
1:00 AM 68.0 ° F 55.4 ° F 64% 29.77 pul - Variable 2.3 mph - N/A   Despejado
2:00 AM 66.2 ° F 55.4 ° F 68% 29.80 pul - Oeste 3.5 mph - N/A   Despejado
3:00 AM 66 ° F 54 ° F 55% 29.80 pul 6 mi SO 4.6 mph - -   Muy nublado
3:00 AM 66.2 ° F 53.6 ° F 64% 29.80 pul - OSO 4.6 mph - N/A   Despejado
4:00 AM 66.2 ° F 53.6 ° F 64% 29.80 pul - OSO 3.5 mph - N/A   Despejado
5:00 AM 64.4 ° F 53.6 ° F 68% 29.80 pul - OSO 5.8 mph - N/A   Despejado
6:00 AM 64 ° F 52 ° F 57% 29.82 pul 6 mi OSO 5.8 mph - -   Nubes dispersas
6:00 AM 64.4 ° F 51.8 ° F 64% 29.80 pul - OSO 5.8 mph - N/A   Despejado
7:00 AM 64.4 ° F 51.8 ° F 64% 29.83 pul - OSO 8.1 mph - N/A   Despejado
8:00 AM 62.6 ° F 50.0 ° F 63% 29.86 pul - OSO 6.9 mph - N/A   Despejado
9:00 AM 65 ° F 51 ° F 51% 29.88 pul 6 mi OSO 4.6 mph - -   Nubes dispersas
9:00 AM 64.4 ° F 51.8 ° F 64% 29.86 pul - OSO 4.6 mph - N/A   Despejado
10:00 AM 68.0 ° F 50.0 ° F 52% 29.89 pul - Variable 5.8 mph - N/A   Despejado
11:00 AM 69.8 ° F 51.8 ° F 53% 29.89 pul - OSO 8.1 mph - N/A   Despejado
12:00 PM 72 ° F 49 ° F 33% 29.90 pul 6 mi SO 6.9 mph - -   Nubes dispersas
12:00 PM 73.4 ° F 48.2 ° F 41% 29.89 pul - SO 6.9 mph 18.4 mph N/A   Despejado
1:00 PM 73.4 ° F 46.4 ° F 38% 29.89 pul - SO 9.2 mph - N/A   Despejado
2:00 PM 75.2 ° F 48.2 ° F 38% 29.86 pul 6.2 mi Oeste 10.4 mph 21.9 mph N/A   Nubes dispersas
3:00 PM 75 ° F 47 ° F 26% 29.87 pul 6 mi OSO 11.5 mph - -   Parcialmente nublado
3:00 PM 75.2 ° F 48.2 ° F 38% 29.86 pul - OSO 11.5 mph 24.2 mph N/A   Despejado
3:26 PM 75.2 ° F 41.0 ° F 29% 29.86 pul - Oeste 12.7 mph 25.3 mph N/A   Despejado
4:00 PM 75.2 ° F 39.2 ° F 27% 29.86 pul - Oeste 15.0 mph 26.5 mph N/A   Despejado
5:00 PM 75.2 ° F 35.6 ° F 24% 29.89 pul - OSO 10.4 mph 21.9 mph N/A   Despejado
6:00 PM 73 ° F 34 ° F 14% 29.90 pul 6 mi SO 11.5 mph - -  
6:00 PM 71.6 ° F 32.0 ° F 23% 29.89 pul - OSO 11.5 mph 26.5 mph N/A   Despejado
7:00 PM 69.8 ° F 37.4 ° F 31% 29.92 pul - OSO 4.6 mph - N/A   Despejado
8:00 PM 68.0 ° F 37.4 ° F 33% 29.95 pul - SO 8.1 mph 19.6 mph N/A   Despejado
9:00 PM 66 ° F 40 ° F 27% 29.99 pul 6 mi SO 8.1 mph - -  
9:00 PM 66.2 ° F 41.0 ° F 40% 29.98 pul - SSO 8.1 mph - N/A   Despejado
10:00 PM 64.4 ° F 41.0 ° F 42% 30.01 pul - SSO 6.9 mph - N/A   Despejado
11:00 PM 62.6 ° F 42.8 ° F 48% 30.04 pul - SSO 4.6 mph - N/A   Despejado